Flag for Cameroon Weather past 2 weeks in Douala, Cameroon

Now
75 °F

Passing clouds.


Feels Like: 73 °F
Forecast: 75 / 80 °F
Wind: No wind

Location: Douala Obs.

Current Time: Jul 5, 2015 at 5:57:42 AM

Latest Report: Jul 5, 2015 at 5:00 AM


Visibility: 5 mi

Pressure: 29.92 "Hg

Humidity: 100%

Dew point: 75 °F

Location of DoualaLocation

Historic Weather in Douala — Graph

°F

Douala temperature yesterday

Maximum temperature yesterday: 82 °F (at 3:00 PM)
Minimum temperature yesterday: 75 °F (at 12:00 AM)
Average temperature yesterday: 78 °F

Past Weeks' High & Low Weather Summary

 TemperatureHumidityPressure
High84 °F (Jun 21, 2:00 PM)100% (Jun 20, 6:00 AM)30.09 "Hg (Jun 20, 6:00 AM)
Low75 °F (Jun 20, 6:00 AM)70% (Jun 29, 12:00 PM)29.89 "Hg (Jun 20, 3:00 PM)
Average78 °F91%29.97 "Hg
* Reported Jun 20 4:00 AM — Jul 5 4:00 AM, Douala, Weather by CustomWeather, © 2015

Note: Actual official high and low records may vary slightly from our data, if they occured in-between our weather recording intervals... More about our weather records

Advertising

Douala weather history for previous 24 hours

 ConditionsComfort  
Time TempWeatherWind HumidityBarometerVisibility
4:00 AM
Sun, Jul 5
75 °FPassing clouds.No wind100%29.92 "Hg5 mi
3:00 AM75 °FPassing clouds.No wind100%29.92 "Hg5 mi
2:00 AM77 °FPassing clouds.No wind94%29.92 "Hg5 mi
1:00 AM77 °FPartly cloudy.No wind100%29.95 "Hg5 mi
12:00 AM77 °FPassing clouds.No wind94%29.98 "HgN/A
11:00 PM
Sat, Jul 4
77 °FPassing clouds.No wind94%29.98 "HgN/A
10:00 PM77 °FPassing clouds.No wind94%29.98 "HgN/A
9:00 PM77 °FPassing clouds.5 mph94%29.95 "HgN/A
8:00 PM77 °FPassing clouds.1 mph94%29.92 "HgN/A
7:00 PM79 °FPassing clouds.No wind89%29.92 "HgN/A
6:00 PM81 °FPartly sunny.2 mph84%29.89 "HgN/A
5:00 PM81 °FPartly sunny.2 mph84%29.89 "HgN/A
4:00 PM82 °FPartly sunny.7 mph79%29.89 "HgN/A
3:00 PM82 °FPartly sunny.5 mph89%29.92 "HgN/A
2:00 PM81 °FPartly sunny.6 mph89%29.92 "HgN/A
1:00 PM81 °FBroken clouds.7 mph89%29.95 "HgN/A
12:00 PM79 °FMore clouds than sun.5 mph89%29.98 "Hg4 mi
11:00 AM79 °FDrizzle. Fog.5 mph89%29.98 "Hg1 mi
10:00 AM77 °FFog.No wind94%29.98 "Hg1 mi
9:00 AM77 °FFog.No wind94%29.98 "Hg1 mi
8:00 AM75 °FFog.No wind100%29.98 "Hg1 mi
7:00 AM75 °FFog.2 mph100%29.95 "Hg2 mi
6:00 AM75 °FPartly cloudy.No wind100%29.92 "Hg4 mi
5:00 AM75 °FPassing clouds.No wind100%29.92 "Hg4 mi
Weather by CustomWeather, © 2015

See weather overviewHow to use our weather pages